www.pogodaiklimat.ru

Погода и климат >> Архив погоды >> Индонезия >> Маумере


ПОГОДА в Маумере

  • Прогноз погоды в Маумере
  • Монитор погоды в Маумере

АРХИВ ПОГОДЫ в Маумере

Время (UTC), дата Ветер
(напр.,м/с)
 
Видим.   Явления Облачность Т
(С)
Тd
(С)
f
(%)
Тe
(С)
Тes
(С)
Комфортность P
(гПа)
Po
(гПа)
Тmin
(С)
Tmax
(С)
R
(мм)
R24
(мм)
S
(см)
03 13.09 С 4 10 км 1/0 540 м
[Cu hum]
+30.4 +16.7 44 +34 +48 очень
душно
1016.2 1012.5
06 13.09 СЗ 4 10 км 1/1 540 м
[Cu hum]
+31.4 +20.6 53 +38 +49 очень
душно
1013.4 1009.8
09 13.09 СЗ 3 10 км 1/1 540 м
[Cu hum]
+28.8 +20.4 60 +35 +36 очень
душно
1013.2 1009.6
12 13.09 Ю 2 8000 м 1/0 540 м
[Cu hum]
+24.4 +19.1 72 +29 +29 душно 1015.1 1011.4 +32.0
15 13.09 Ю 4 8000 м 1/1 540 м
[Cu hum Ci fib]
+23.6 +19.8 79 +29 +29 душно 1015.9 1012.3
18 13.09 Ю 2 8000 м 1/1 540 м
[Cu hum Ci fib]
+21.8 +18.9 84 +27 +27 душно 1015.1 1011.4
21 13.09 ЮЗ 3 8000 м 1/1 540 м
[Cu hum Ci fib]
+20.8 +16.1 74 +25 +25 комфорт 1015.9 1012.2
00 14.09 С 2 10 км 1/1 600 м
[Cu med, cong Ci fib]
+26.8 +18.0 59 +31 +37 душно 1017.5 1013.8 +18.0
03 14.09 СЗ 4 10 км 1/1 600 м
[Cu med, cong Ci fib]
+30.8 +18.7 49 +36 +50 очень
душно
1016.0 1012.4
06 14.09 С 3 10 км 1/1 540 м
[Cu hum Ci fib]
+30.8 +20.9 56 +38 +50 очень
душно
1013.8 1010.2
09 14.09 СЗ 2 10 км 1/1 540 м
[Cu hum Ci fib]
+28.8 +20.4 60 +35 +36 очень
душно
1013.6 1009.9
12 14.09 Ю 4 8000 м 1/1 540 м
[Cu hum Ci fib]
+25.0 +19.9 73 +31 +31 очень
душно
1015.0 1011.4 +31.6
15 14.09 Ю 4 8000 м 3/3 540 м
[Cu med, cong Ci fib]
+24.2 +19.4 75 +29 +29 душно 1015.2 1011.6
18 14.09 Ю 3 8000 м 1/1 540 м
[Cu hum Ci fib]
+23.0 +20.2 84 +30 +30 очень
душно
1014.1 1010.4
21 14.09 Ю 2 8000 м 1/1 540 м
[Cu hum Ci fib]
+21.2 +18.8 86 +26 +26 душно 1014.5 1010.8
00 15.09 З 2 10 км 1/0 540 м
[Cu hum]
+26.6 +19.9 67 +33 +38 очень
душно
1015.9 1012.3 +21.2
03 15.09 С 4 10 км 1/0 540 м
[Cu hum]
+30.0 +18.7 51 +35 +48 очень
душно
1014.9 1011.3
06 15.09 С 4 10 км 1/0 540 м
[Cu med, cong]
+31.2 +21.8 57 +40 +49 очень
душно
1012.7 1009.0
09 15.09 СЗ 3 10 км 1/0 540 м
[Cu med, cong]
+28.8 +20.9 62 +36 +37 очень
душно
1012.8 1009.1
12 15.09 Ю 2 8000 м 1/1 540 м
[Cu hum Ci fib]
+26.0 +20.2 70 +32 +32 очень
душно
1014.4 1010.7 +32.0
15 15.09 ЮЗ 4 8000 м 1/1 540 м
[Cu hum Ci fib]
+23.7 +19.5 77 +29 +29 душно 1014.6 1011.0
18 15.09 ЮЗ 3 8000 м 1/1 540 м
[Cu hum Ci fib]
+23.2 +19.7 81 +30 +30 очень
душно
1013.9 1010.2
21 15.09 Ю 2 8000 м 1/1 540 м
[Cu hum Ci fib]
+22.0 +19.1 84 +27 +27 душно 1014.0 1010.3
00 16.09 С 2 10 км 1/1 540 м
[Cu hum Ci fib]
+27.2 +19.9 64 +33 +39 очень
душно
1015.1 1011.5 +21.0
03 16.09 С 3 10 км 3/3 540 м
[Cu med, cong Ci fib]
+30.2 +20.6 56 +37 +49 очень
душно
1014.1 1010.5
06 16.09 С 4 10 км 3/0 540 м
[Cu hum]
+31.0 +22.5 61 +41 +49 опасность
перегрева
1012.1 1008.4
09 16.09 СЗ 3 10 км 3/0 540 м
[Cu hum]
+28.6 +22.7 70 +38 +39 очень
душно
1011.7 1008.1
12 16.09 Ю 2 8000 м 4/3 540 м
[Cu med, cong Ac trans Ci fib]
+25.4 +21.4 79 +32 +32 очень
душно
1013.5 1009.9 +31.2
15 16.09 ЮЗ 5 8000 м 5/4 540 м
[Cu med, cong Ac trans Ci fib]
+24.7 +20.9 79 +31 +31 очень
душно
1014.3 1010.7
18 16.09 ЮЗ 3 6000 м слаб. дождь 10/6 540 м
[Cu med, cong Ac As Ci fib]
+24.6 +21.8 84 +31 +31 очень
душно
1013.9 1010.2 0.0
21 16.09 ЮЗ 3 8000 м {дождь} 8/5 540 м
[Cu med, cong Ac trans Ci fib]
+24.0 +21.2 84 +30 +30 очень
душно
1014.7 1011.0 0.0
00 17.09 ЮЗ 5 10 км 5/1 540 м
[Cu hum Ac trans Ci fib]
+27.2 +19.9 64 +33 +36 очень
душно
1016.1 1012.4 +23.8 0.0
03 17.09 С 4 10 км 6/3 540 м
[Cu med, cong Ac trans Ci fib]
+31.6 +21.4 55 +40 +48 очень
душно
1014.5 1010.9
06 17.09 С 3 10 км 5/4 540 м
[Cu med, cong Ci fib]
+31.4 +20.6 53 +38 +46 очень
душно
1012.1 1008.5
09 17.09 СЗ 3 10 км 3/3 540 м
[Cu med, cong Ci fib]
+29.0 +22.9 70 +39 +39 очень
душно
1013.0 1009.3
12 17.09 СЗ 2 8000 м 3/3 540 м
[Cu med, cong Ci fib]
+26.7 +23.3 82 +36 +36 очень
душно
1015.2 1011.5 +32.7
15 17.09 Ю 3 8000 м 3/3 540 м
[Cu hum Ci fib]
+25.2 +20.4 75 +31 +31 очень
душно
1015.8 1012.7
18 17.09 Ю 2 8000 м 1/1 540 м
[Cu hum Ci fib]
+24.2 +20.4 79 +30 +30 очень
душно
1014.5 1010.9
21 17.09 Ю 2 8000 м 1/1 540 м
[Cu hum Ci fib]
+22.4 +20.0 86 +29 +29 очень
душно
1015.5 1012.0
00 18.09 СВ 2 10 км 3/1 540 м
[Cu hum Ac trans Ci fib]
+27.5 +21.0 68 +35 +40 очень
душно
1017.0 1013.3 +22.4
03 18.09 С 3 10 км 5/5 540 м
[Cu med, cong Ci fib]
+31.4 +19.9 51 +38 +46 очень
душно
1015.2 1011.6
06 18.09 СЗ 4 10 км 5/5 540 м
[Cu med, cong Ci fib]
+31.4 +22.6 60 +41 +47 опасность
перегрева
1013.1 1009.5
09 18.09 ЮЗ 5 10 км 6/5 540 м
[Cu med, cong Ac trans Ci fib]
+28.0 +21.4 67 +35 +36 очень
душно
1013.6 1010.0
12 18.09 Ю 2 8000 м 5/4 540 м
[Cu med, cong Ac trans Ci fib]
+25.8 +21.6 78 +33 +33 очень
душно
1015.2 1011.6 +32.4
15 18.09 Ю 3 8000 м 1/0 540 м
[Cu hum]
+24.8 +20.8 78 +31 +31 очень
душно
1015.3 1011.7
18 18.09 Ю 3 8000 м 1/0 540 м
[Cu hum]
+24.0 +21.2 84 +30 +30 очень
душно
1014.2 1010.5
21 18.09 Ю 1 8000 м 1/0 540 м
[Cu hum]
+22.0 +19.8 87 +28 +28 душно 1014.7 1011.1
00 19.09 С 2 10 км 1/0 540 м
[Cu hum]
+27.5 +21.9 72 +36 +41 очень
душно
1016.5 1012.8 +22.0
03 19.09 С 4 10 км 5/3 540 м
[Cu med, cong Ci fib]
+31.1 +22.6 61 +41 +51 опасность
перегрева
1014.9 1011.2
06 19.09 С 4 10 км 8/5 540 м
[Cu med, cong As trans Ci fib]
+31.4 +22.9 61 +42 +46 опасность
перегрева
1012.9 1009.3
09 19.09 СЗ 2 10 км 4/3 540 м
[Cu med, cong Ci fib]
+28.8 +22.2 68 +38 +38 очень
душно
1012.8 1009.1
12 19.09 Ю 2 8000 м 6/5 480 м
[Sc Ci fib]
+26.0 +21.3 75 +33 +33 очень
душно
1014.5 1010.8 +31.6
15 19.09 Ю 2 8000 м 4/4 540 м
[Cu med, cong Ci fib]
+24.2 +21.4 84 +31 +31 очень
душно
1014.5 1010.9
18 19.09 З 2 8000 м 3/3 540 м
[Cu med, cong Ci fib]
+23.6 +21.4 87 +30 +30 очень
душно
1013.6 1010.0
21 19.09 Ю 2 8000 м 3/3 540 м
[Cu med, cong Ci fib]
+22.5 +20.1 86 +29 +29 очень
душно
1014.4 1010.7
00 20.09 ЮЗ 7 10 км 3/3 540 м
[Cu med, cong Ci fib]
+27.2 +21.1 69 +34 +36 очень
душно
1015.3 1011.6 +22.5

 

Местоположение метеостанции Маумере (Индонезия): широта -8.63 долгота 122.25 высота над уровнем моря 3 м.

В архиве по умолчанию представлена погода в Маумере за последнюю неделю. Архивные данные за месяц целиком и за предыдущие месяцы, начиная с января 2011 года, Вы можете получить, выбрав интересующий диапазон дат из раскрывающегося списка и нажав кнопку "Ввод!".


*Определитесь, кто Вы:
робот инопланетянин человек

Внимание! Время в таблицах - всемирное. Для получения местного времени необходимо прибавить поправку, которая равна 8 ч.

Смотрите также архив погоды в соседних городах и на ближайших метеорологических станциях:

Погода в Ларантуке (Индонезия) (89 км)
Погода в Рутенге (Индонезия) (198 км)
Погода в Сабу (Индонезия) (213 км)
Погода в Купанге (Индонезия) (230 км)
Погода в Аэропорту Умбу Механг Кунда (Индонезия) (240 км)
Погода на Роти (Индонезия) (250 км)
Погода на Алоре (Индонезия) (258 км)
Погода в Бау-Бау (Индонезия) (354 км)
Погода в Биме (Индонезия) (391 км)
Погода в Колаке (Индонезия) (488 км)

Пояснения к столбцам:

Ветер - указаны скорость ветра в м/с - средняя за 10 мин, порывы в срок и между сроками (в фигурных скобках) и направление, откуда дует ветер: С - северный, СВ - северо-восточный, В - восточный, ЮВ - юго-восточный, Ю - южный, ЮЗ - юго-западный, З - западный, СЗ - северо-западный.
Видимость - горизонтальная дальность видимости в метрах или километрах. При видимости от 1 до 10 км при отсутствии осадков обычно наблюдается дымка, при ухудшении видимости до 1 км и менее - туман. В сухую погоду видимость может ухудшаться дымом, пылью или мглою.
Явления - указаны атмосферные явления, наблюдавшиеся в срок или в последний час перед сроком; фигурными скобками обозначены явления, наблюдавшиеся между сроками (за 1-3 часа до срока); квадратными скобками обозначены град или гололедные отложения с указанием их диаметра в мм.
Облачность - указаны через наклонную черту общая и нижняя облачность в баллах и высота нижней границы облаков в метрах; квадратными скобками обозначены формы облаков: Ci - перистые, Cs - перисто-слоистые, Cc - перисто-кучевые, Ac - высококучевые, As - высокослоистые, Sc - слоисто-кучевые, Ns - слоисто-дождевые, Cu - кучевые, Cb - кучево-дождевые. Подробнее классификацию облаков см. в Атласе облаков (PDF).
T - Температура воздуха - температура, измеренная на высоте 2 м над землей.
Td - Температура точки росы - температура, при понижении до которой содержащийся в воздухе водяной пар достигнет насыщения.
f - Относительная влажность воздуха - влажноcть воздуха, измеренная на высоте 2 м над землей.
Te - Эффективная температура - температура, которую ощущает одетый по сезону человек в тени. Характеристика душности погоды. При расчете учитывается влияние влажности воздуха и скорости ветра на теплоощущения человека.
Tes - Эффективная температура на солнце - температура, которую ощущает человек, с поправкой на солнечный нагрев. Характеристика знойности погоды. Зависит от высоты солнца над горизонтом, облачности и скорости ветра. Ночью, в пасмурную погоду, а также при ветре 12 м/с и более поправка равна нулю.
P - Атмосферное давление - приведенное к уровню моря атмосферное давление.
Po - Атмосферное давление - измеренное на уровне метеостанции атмосферное давление.
Tmin - Минимальная температура - минимум температуры воздуха на высоте 2 м над землей.
Tmax - Максимальная температура - максимум температуры воздуха на высоте 2 м над землей.
R - Количество осадков - Количество выпавших осадков за период времени, мм. При наведении курсора мыши на число - период времени, за который выпало указанное количество осадков.
R24 - Количество осадков - Количество выпавших осадков за 24 часа, мм.
S - Снежный покров - Высота снежного покрова, см. При наведении курсора мыши на число - состояние снежного покрова и степень покрытия местности в баллах.